Time,TemperatureF,DewpointF,PressureIn,WindDirection,WindDirectionDegrees,WindSpeedMPH,WindSpeedGustMPH,Humidity,HourlyPrecipIn,Conditions,Clouds,dailyrainin,SoftwareType,DateUTC
2013-09-14 00:00:00,55.5,52.9,29.79,North,11,0.0,1.0,91,0.00,,,0.00,Wunderground v.1.15,2013-09-14 07:00:00,
2013-09-14 00:10:00,55.4,53.1,29.79,North,11,0.0,1.0,92,0.00,,,0.00,Wunderground v.1.15,2013-09-14 07:10:00,
2013-09-14 00:15:00,55.4,53.1,29.79,SE,128,0.0,1.0,92,0.00,,,0.00,Wunderground v.1.15,2013-09-14 07:15:00,
2013-09-14 00:20:00,55.3,53.0,29.79,SE,128,0.0,1.0,92,0.00,,,0.00,Wunderground v.1.15,2013-09-14 07:20:00,
2013-09-14 00:25:00,55.2,52.9,29.79,SE,126,0.0,1.0,92,0.00,,,0.00,Wunderground v.1.15,2013-09-14 07:25:00,
2013-09-14 00:35:00,55.1,52.8,29.80,SE,124,0.0,3.0,92,0.00,,,0.00,Wunderground v.1.15,2013-09-14 07:35:00,
2013-09-14 00:40:00,55.1,52.8,29.80,SSW,196,0.0,1.0,92,0.00,,,0.00,Wunderground v.1.15,2013-09-14 07:40:00,
2013-09-14 00:45:00,55.1,52.8,29.80,SE,139,0.0,5.0,92,0.00,,,0.00,Wunderground v.1.15,2013-09-14 07:45:00,
2013-09-14 00:55:00,55.0,53.0,29.79,SE,130,0.0,1.0,93,0.00,,,0.00,Wunderground v.1.15,2013-09-14 07:55:00,
2013-09-14 01:00:00,54.9,52.6,29.79,SE,126,0.0,4.0,92,0.00,,,0.00,Wunderground v.1.15,2013-09-14 08:00:00,
2013-09-14 01:05:00,54.9,52.6,29.79,SSW,194,0.0,4.0,92,0.00,,,0.00,Wunderground v.1.15,2013-09-14 08:05:00,
2013-09-14 01:10:00,54.8,52.5,29.79,SSW,193,0.0,1.0,92,0.00,,,0.00,Wunderground v.1.15,2013-09-14 08:10:00,
2013-09-14 01:15:00,54.8,52.5,29.79,SW,224,0.0,1.0,92,0.00,,,0.00,Wunderground v.1.15,2013-09-14 08:15:00,
2013-09-14 01:20:00,54.7,52.4,29.79,SW,224,0.0,1.0,92,0.00,,,0.00,Wunderground v.1.15,2013-09-14 08:20:00,
2013-09-14 01:30:00,54.6,52.6,29.79,ESE,120,0.0,1.0,93,0.00,,,0.00,Wunderground v.1.15,2013-09-14 08:30:00,
2013-09-14 01:35:00,54.6,52.6,29.79,ESE,120,0.0,1.0,93,0.00,,,0.00,Wunderground v.1.15,2013-09-14 08:35:00,
2013-09-14 01:40:00,54.5,52.5,29.79,ESE,122,0.0,0.0,93,0.00,,,0.00,Wunderground v.1.15,2013-09-14 08:40:00,
2013-09-14 01:45:00,54.5,52.5,29.79,ESE,122,0.0,2.0,93,0.00,,,0.00,Wunderground v.1.15,2013-09-14 08:45:00,
2013-09-14 01:55:00,54.4,52.4,29.78,SE,146,0.0,2.0,93,0.00,,,0.00,Wunderground v.1.15,2013-09-14 08:55:00,
2013-09-14 02:00:00,54.3,52.3,29.78,SE,143,0.0,0.0,93,0.00,,,0.00,Wunderground v.1.15,2013-09-14 09:00:00,
2013-09-14 02:05:00,54.2,52.2,29.79,SE,144,0.0,0.0,93,0.00,,,0.00,Wunderground v.1.15,2013-09-14 09:05:00,
2013-09-14 02:10:00,54.1,52.1,29.79,SE,144,0.0,0.0,93,0.00,,,0.00,Wunderground v.1.15,2013-09-14 09:10:00,
2013-09-14 02:15:00,54.0,52.0,29.78,SE,142,0.0,0.0,93,0.00,,,0.00,Wunderground v.1.15,2013-09-14 09:15:00,
2013-09-14 02:25:00,54.0,52.0,29.78,SE,144,0.0,2.0,93,0.00,,,0.00,Wunderground v.1.15,2013-09-14 09:25:00,
2013-09-14 02:30:00,54.1,52.4,29.78,SE,138,0.0,1.0,94,0.00,,,0.00,Wunderground v.1.15,2013-09-14 09:30:00,
2013-09-14 02:35:00,54.1,52.4,29.78,SE,139,0.0,1.0,94,0.00,,,0.00,Wunderground v.1.15,2013-09-14 09:35:00,
2013-09-14 02:45:00,54.2,52.5,29.78,SE,139,0.0,1.0,94,0.00,,,0.00,Wunderground v.1.15,2013-09-14 09:45:00,
2013-09-14 02:50:00,54.2,52.5,29.78,SE,139,0.0,0.0,94,0.00,,,0.00,Wunderground v.1.15,2013-09-14 09:50:00,
2013-09-14 02:55:00,54.1,52.4,29.78,SSW,201,0.0,2.0,94,0.00,,,0.00,Wunderground v.1.15,2013-09-14 09:55:00,
2013-09-14 03:00:00,54.2,52.5,29.78,SSW,200,0.0,2.0,94,0.00,,,0.00,Wunderground v.1.15,2013-09-14 10:00:00,
2013-09-14 03:05:00,54.2,52.5,29.78,SSW,200,0.0,2.0,94,0.00,,,0.00,Wunderground v.1.15,2013-09-14 10:05:00,
2013-09-14 03:15:00,54.2,52.5,29.78,SSW,201,0.0,0.0,94,0.00,,,0.00,Wunderground v.1.15,2013-09-14 10:15:00,
2013-09-14 03:20:00,54.2,52.5,29.77,SSW,201,0.0,0.0,94,0.00,,,0.00,Wunderground v.1.15,2013-09-14 10:20:00,
2013-09-14 03:30:00,54.1,52.4,29.77,SSW,199,0.0,0.0,94,0.00,,,0.00,Wunderground v.1.15,2013-09-14 10:30:00,
2013-09-14 03:35:00,54.1,52.4,29.77,SSW,199,0.0,0.0,94,0.00,,,0.00,Wunderground v.1.15,2013-09-14 10:35:00,
2013-09-14 03:40:00,54.1,52.4,29.77,SSW,193,0.0,1.0,94,0.00,,,0.00,Wunderground v.1.15,2013-09-14 10:40:00,
2013-09-14 03:45:00,54.1,52.4,29.77,SSW,193,0.0,1.0,94,0.00,,,0.00,Wunderground v.1.15,2013-09-14 10:45:00,
2013-09-14 03:55:00,54.1,52.7,29.78,SSW,192,0.0,0.0,95,0.00,,,0.00,Wunderground v.1.15,2013-09-14 10:55:00,
2013-09-14 04:00:00,54.2,52.8,29.78,SSW,200,0.0,0.0,95,0.00,,,0.00,Wunderground v.1.15,2013-09-14 11:00:00,
2013-09-14 04:05:00,54.2,52.8,29.78,SSW,200,0.0,1.0,95,0.00,,,0.00,Wunderground v.1.15,2013-09-14 11:05:00,
2013-09-14 04:10:00,54.3,52.9,29.78,SSW,200,0.0,0.0,95,0.00,,,0.00,Wunderground v.1.15,2013-09-14 11:10:00,
2013-09-14 04:20:00,54.4,53.0,29.78,SSW,211,0.0,0.0,95,0.00,,,0.00,Wunderground v.1.15,2013-09-14 11:20:00,
2013-09-14 04:25:00,54.5,53.1,29.78,SSW,211,0.0,0.0,95,0.00,,,0.00,Wunderground v.1.15,2013-09-14 11:25:00,
2013-09-14 04:35:00,54.6,53.2,29.78,ESE,109,0.0,0.0,95,0.00,,,0.00,Wunderground v.1.15,2013-09-14 11:35:00,
2013-09-14 04:40:00,54.7,53.3,29.78,SSE,159,0.0,2.0,95,0.00,,,0.00,Wunderground v.1.15,2013-09-14 11:40:00,
2013-09-14 04:45:00,54.7,53.3,29.78,SSE,151,0.0,2.0,95,0.00,,,0.00,Wunderground v.1.15,2013-09-14 11:45:00,
2013-09-14 04:55:00,54.7,53.3,29.78,SSE,150,0.0,3.0,95,0.00,,,0.00,Wunderground v.1.15,2013-09-14 11:55:00,
2013-09-14 05:00:00,54.7,53.3,29.79,West,269,0.0,1.0,95,0.00,,,0.00,Wunderground v.1.15,2013-09-14 12:00:00,
2013-09-14 05:05:00,54.7,53.0,29.78,West,269,0.0,3.0,94,0.00,,,0.00,Wunderground v.1.15,2013-09-14 12:05:00,
2013-09-14 05:10:00,54.7,53.0,29.78,WSW,258,0.0,4.0,94,0.00,,,0.00,Wunderground v.1.15,2013-09-14 12:10:00,
2013-09-14 05:15:00,54.6,52.9,29.78,WSW,258,0.0,4.0,94,0.00,,,0.00,Wunderground v.1.15,2013-09-14 12:15:00,
2013-09-14 05:25:00,54.6,52.9,29.78,WSW,258,0.0,1.0,94,0.00,,,0.00,Wunderground v.1.15,2013-09-14 12:25:00,
2013-09-14 05:30:00,54.6,52.9,29.78,WSW,253,0.0,1.0,94,0.00,,,0.00,Wunderground v.1.15,2013-09-14 12:30:00,
2013-09-14 05:35:00,54.7,53.0,29.78,WSW,252,0.0,1.0,94,0.00,,,0.00,Wunderground v.1.15,2013-09-14 12:35:00,
2013-09-14 05:40:00,54.7,53.0,29.79,WSW,248,0.0,5.0,94,0.00,,,0.00,Wunderground v.1.15,2013-09-14 12:40:00,
2013-09-14 05:50:00,54.7,53.0,29.79,South,172,0.0,2.0,94,0.00,,,0.00,Wunderground v.1.15,2013-09-14 12:50:00,
2013-09-14 05:55:00,54.7,53.0,29.79,SSE,153,0.0,5.0,94,0.00,,,0.00,Wunderground v.1.15,2013-09-14 12:55:00,
2013-09-14 06:00:00,54.6,52.9,29.79,South,178,1.0,1.0,94,0.00,,,0.00,Wunderground v.1.15,2013-09-14 13:00:00,
2013-09-14 06:05:00,54.6,52.9,29.79,SE,146,0.0,4.0,94,0.00,,,0.00,Wunderground v.1.15,2013-09-14 13:05:00,
2013-09-14 06:10:00,54.5,53.1,29.79,SE,136,1.0,1.0,95,0.00,,,0.00,Wunderground v.1.15,2013-09-14 13:10:00,
2013-09-14 06:20:00,54.5,53.1,29.79,SE,137,0.0,0.0,95,0.00,,,0.00,Wunderground v.1.15,2013-09-14 13:20:00,
2013-09-14 06:30:00,54.5,53.1,29.79,NW,317,0.0,1.0,95,0.00,,,0.00,Wunderground v.1.15,2013-09-14 13:30:00,
2013-09-14 06:35:00,54.5,53.1,29.79,NW,319,0.0,1.0,95,0.00,,,0.00,Wunderground v.1.15,2013-09-14 13:35:00,
2013-09-14 06:40:00,54.5,53.1,29.79,NW,318,0.0,1.0,95,0.00,,,0.00,Wunderground v.1.15,2013-09-14 13:40:00,
2013-09-14 06:45:00,54.5,53.1,29.80,SSE,155,0.0,1.0,95,0.00,,,0.00,Wunderground v.1.15,2013-09-14 13:45:00,
2013-09-14 06:50:00,54.5,53.1,29.80,SSE,158,0.0,3.0,95,0.00,,,0.00,Wunderground v.1.15,2013-09-14 13:50:00,
2013-09-14 07:00:00,54.5,53.1,29.80,SSE,157,0.0,0.0,95,0.00,,,0.00,Wunderground v.1.15,2013-09-14 14:00:00,
2013-09-14 07:05:00,54.6,53.2,29.80,SSE,157,0.0,0.0,95,0.00,,,0.00,Wunderground v.1.15,2013-09-14 14:05:00,
2013-09-14 07:10:00,54.6,53.2,29.80,SSE,159,0.0,1.0,95,0.00,,,0.00,Wunderground v.1.15,2013-09-14 14:10:00,
2013-09-14 07:15:00,54.6,53.2,29.80,SSE,160,0.0,1.0,95,0.00,,,0.00,Wunderground v.1.15,2013-09-14 14:15:00,
2013-09-14 07:25:00,54.7,53.3,29.81,SSE,154,0.0,1.0,95,0.00,,,0.00,Wunderground v.1.15,2013-09-14 14:25:00,
2013-09-14 07:30:00,54.8,53.1,29.80,SE,126,0.0,3.0,94,0.00,,,0.00,Wunderground v.1.15,2013-09-14 14:30:00,
2013-09-14 07:35:00,54.8,53.1,29.81,SE,142,1.0,5.0,94,0.00,,,0.00,Wunderground v.1.15,2013-09-14 14:35:00,
2013-09-14 07:45:00,54.6,52.9,29.81,SSW,206,1.0,8.0,94,0.00,,,0.00,Wunderground v.1.15,2013-09-14 14:45:00,
2013-09-14 07:50:00,54.6,53.2,29.81,SSE,161,1.0,1.0,95,0.00,,,0.00,Wunderground v.1.15,2013-09-14 14:50:00,
2013-09-14 08:00:00,54.8,53.1,29.81,South,184,0.0,3.0,94,0.00,,,0.00,Wunderground v.1.15,2013-09-14 15:00:00,
2013-09-14 08:10:00,55.0,53.3,29.81,SE,136,0.0,1.0,94,0.00,,,0.00,Wunderground v.1.15,2013-09-14 15:10:00,
2013-09-14 08:15:00,55.1,53.4,29.81,SE,126,0.0,2.0,94,0.00,,,0.00,Wunderground v.1.15,2013-09-14 15:15:00,
2013-09-14 08:25:00,55.3,53.6,29.82,SSE,153,1.0,5.0,94,0.00,,,0.00,Wunderground v.1.15,2013-09-14 15:25:00,
2013-09-14 08:30:00,55.3,53.6,29.81,ESE,123,1.0,5.0,94,0.00,,,0.00,Wunderground v.1.15,2013-09-14 15:30:00,
2013-09-14 08:35:00,55.5,53.8,29.82,ESE,109,1.0,5.0,94,0.00,,,0.00,Wunderground v.1.15,2013-09-14 15:35:00,
2013-09-14 08:40:00,55.8,54.1,29.82,South,187,1.0,1.0,94,0.00,,,0.00,Wunderground v.1.15,2013-09-14 15:40:00,
2013-09-14 08:45:00,55.9,53.9,29.82,SE,133,1.0,2.0,93,0.00,,,0.00,Wunderground v.1.15,2013-09-14 15:45:00,
2013-09-14 08:50:00,56.1,54.4,29.82,ESE,117,1.0,1.0,94,0.00,,,0.00,Wunderground v.1.15,2013-09-14 15:50:00,
2013-09-14 09:00:00,56.6,54.3,29.82,SE,128,1.0,1.0,92,0.00,,,0.00,Wunderground v.1.15,2013-09-14 16:00:00,
2013-09-14 09:05:00,56.8,54.5,29.82,ESE,107,1.0,4.0,92,0.00,,,0.00,Wunderground v.1.15,2013-09-14 16:05:00,
2013-09-14 09:10:00,56.9,54.3,29.82,SSE,162,1.0,5.0,91,0.00,,,0.00,Wunderground v.1.15,2013-09-14 16:10:00,
2013-09-14 09:15:00,57.2,54.6,29.82,ESE,108,2.0,5.0,91,0.00,,,0.00,Wunderground v.1.15,2013-09-14 16:15:00,
2013-09-14 09:20:00,57.4,54.8,29.82,East,80,1.0,5.0,91,0.00,,,0.00,Wunderground v.1.15,2013-09-14 16:20:00,
2013-09-14 09:25:00,57.9,55.0,29.82,West,269,1.0,5.0,90,0.00,,,0.00,Wunderground v.1.15,2013-09-14 16:25:00,
2013-09-14 09:30:00,58.5,55.3,29.82,ESE,109,1.0,3.0,89,0.00,,,0.00,Wunderground v.1.15,2013-09-14 16:30:00,
2013-09-14 09:35:00,58.8,55.3,29.82,SSE,152,1.0,4.0,88,0.00,,,0.00,Wunderground v.1.15,2013-09-14 16:35:00,
2013-09-14 09:40:00,59.2,55.3,29.82,SSE,164,1.0,5.0,87,0.00,,,0.00,Wunderground v.1.15,2013-09-14 16:40:00,
2013-09-14 09:45:00,59.4,55.5,29.82,ESE,112,2.0,7.0,87,0.00,,,0.00,Wunderground v.1.15,2013-09-14 16:45:00,
2013-09-14 09:50:00,59.8,55.6,29.82,SE,131,2.0,2.0,86,0.00,,,0.00,Wunderground v.1.15,2013-09-14 16:50:00,
2013-09-14 09:55:00,60.1,55.9,29.82,SE,142,2.0,8.0,86,0.00,,,0.00,Wunderground v.1.15,2013-09-14 16:55:00,
2013-09-14 10:00:00,60.4,55.9,29.83,SSE,151,2.0,6.0,85,0.00,,,0.00,Wunderground v.1.15,2013-09-14 17:00:00,
2013-09-14 10:05:00,60.8,55.9,29.83,South,171,2.0,6.0,84,0.00,,,0.00,Wunderground v.1.15,2013-09-14 17:05:00,
2013-09-14 10:15:00,61.8,56.2,29.83,SW,235,1.0,5.0,82,0.00,,,0.00,Wunderground v.1.15,2013-09-14 17:15:00,
2013-09-14 10:20:00,62.1,56.2,29.83,ENE,74,1.0,1.0,81,0.00,,,0.00,Wunderground v.1.15,2013-09-14 17:20:00,
2013-09-14 10:25:00,62.2,56.3,29.83,ESE,103,1.0,7.0,81,0.00,,,0.00,Wunderground v.1.15,2013-09-14 17:25:00,
2013-09-14 10:30:00,62.5,56.2,29.83,South,170,1.0,4.0,80,0.00,,,0.00,Wunderground v.1.15,2013-09-14 17:30:00,
2013-09-14 10:35:00,62.9,56.6,29.83,South,171,1.0,4.0,80,0.00,,,0.00,Wunderground v.1.15,2013-09-14 17:35:00,
2013-09-14 10:40:00,62.6,56.3,29.83,East,91,2.0,8.0,80,0.00,,,0.00,Wunderground v.1.15,2013-09-14 17:40:00,
2013-09-14 10:45:00,62.2,56.0,29.83,ESE,106,2.0,8.0,80,0.00,,,0.00,Wunderground v.1.15,2013-09-14 17:45:00,
2013-09-14 10:50:00,62.4,56.5,29.83,ESE,107,2.0,6.0,81,0.00,,,0.00,Wunderground v.1.15,2013-09-14 17:50:00,
2013-09-14 10:55:00,62.2,56.3,29.83,South,190,2.0,6.0,81,0.00,,,0.00,Wunderground v.1.15,2013-09-14 17:55:00,
2013-09-14 11:05:00,63.7,56.7,29.83,SSE,155,1.0,5.0,78,0.00,,,0.00,Wunderground v.1.15,2013-09-14 18:05:00,
2013-09-14 11:10:00,63.7,57.1,29.83,SSE,152,1.0,1.0,79,0.00,,,0.00,Wunderground v.1.15,2013-09-14 18:10:00,
2013-09-14 11:15:00,63.8,56.8,29.83,SSE,154,2.0,2.0,78,0.00,,,0.00,Wunderground v.1.15,2013-09-14 18:15:00,
2013-09-14 11:20:00,64.0,57.0,29.83,South,169,2.0,2.0,78,0.00,,,0.00,Wunderground v.1.15,2013-09-14 18:20:00,
2013-09-14 11:25:00,64.0,56.6,29.83,SSE,155,2.0,7.0,77,0.00,,,0.00,Wunderground v.1.15,2013-09-14 18:25:00,
2013-09-14 11:30:00,63.3,56.3,29.83,SE,125,2.0,2.0,78,0.00,,,0.00,Wunderground v.1.15,2013-09-14 18:30:00,
2013-09-14 11:40:00,63.4,56.8,29.83,SSE,154,2.0,6.0,79,0.00,,,0.00,Wunderground v.1.15,2013-09-14 18:40:00,
2013-09-14 11:45:00,64.0,57.0,29.83,WSW,240,1.0,6.0,78,0.00,,,0.00,Wunderground v.1.15,2013-09-14 18:45:00,
2013-09-14 11:50:00,65.1,57.3,29.82,SE,145,1.0,3.0,76,0.00,,,0.00,Wunderground v.1.15,2013-09-14 18:50:00,
2013-09-14 11:55:00,64.7,57.0,29.83,North,360,1.0,6.0,76,0.00,,,0.00,Wunderground v.1.15,2013-09-14 18:55:00,
2013-09-14 12:00:00,65.3,57.5,29.83,WSW,254,1.0,1.0,76,0.00,,,0.00,Wunderground v.1.15,2013-09-14 19:00:00,
2013-09-14 12:10:00,66.6,57.3,29.82,WSW,238,1.0,1.0,72,0.00,,,0.00,Wunderground v.1.15,2013-09-14 19:10:00,
2013-09-14 12:15:00,66.7,57.4,29.82,WSW,250,1.0,4.0,72,0.00,,,0.00,Wunderground v.1.15,2013-09-14 19:15:00,
2013-09-14 12:20:00,66.8,57.5,29.82,SSE,157,1.0,5.0,72,0.00,,,0.00,Wunderground v.1.15,2013-09-14 19:20:00,
2013-09-14 12:30:00,67.5,57.4,29.82,ESE,123,1.0,1.0,70,0.00,,,0.00,Wunderground v.1.15,2013-09-14 19:30:00,
2013-09-14 12:35:00,67.2,57.1,29.82,SE,146,2.0,5.0,70,0.00,,,0.00,Wunderground v.1.15,2013-09-14 19:35:00,
2013-09-14 12:40:00,66.3,57.0,29.82,SE,143,3.0,3.0,72,0.00,,,0.00,Wunderground v.1.15,2013-09-14 19:40:00,
2013-09-14 12:45:00,66.4,57.5,29.81,SE,130,2.0,7.0,73,0.00,,,0.00,Wunderground v.1.15,2013-09-14 19:45:00,
2013-09-14 12:50:00,67.6,57.9,29.81,West,280,1.0,1.0,71,0.00,,,0.00,Wunderground v.1.15,2013-09-14 19:50:00,
2013-09-14 12:55:00,67.6,57.5,29.81,West,279,2.0,2.0,70,0.00,,,0.00,Wunderground v.1.15,2013-09-14 19:55:00,
2013-09-14 13:05:00,67.3,57.6,29.81,SE,130,2.0,7.0,71,0.00,,,0.00,Wunderground v.1.15,2013-09-14 20:05:00,
2013-09-14 13:10:00,67.9,57.8,29.81,West,274,1.0,4.0,70,0.00,,,0.00,Wunderground v.1.15,2013-09-14 20:10:00,
2013-09-14 13:15:00,69.3,58.3,29.81,WSW,237,1.0,4.0,68,0.00,,,0.00,Wunderground v.1.15,2013-09-14 20:15:00,
2013-09-14 13:20:00,70.3,58.4,29.80,West,259,0.0,6.0,66,0.00,,,0.00,Wunderground v.1.15,2013-09-14 20:20:00,
2013-09-14 13:25:00,71.0,58.2,29.80,WSW,258,0.0,6.0,64,0.00,,,0.00,Wunderground v.1.15,2013-09-14 20:25:00,
2013-09-14 13:30:00,71.2,58.4,29.80,West,275,1.0,4.0,64,0.00,,,0.00,Wunderground v.1.15,2013-09-14 20:30:00,
2013-09-14 13:40:00,71.6,58.3,29.80,WSW,256,1.0,1.0,63,0.00,,,0.00,Wunderground v.1.15,2013-09-14 20:40:00,
2013-09-14 13:45:00,72.2,58.5,29.80,West,260,1.0,5.0,62,0.00,,,0.00,Wunderground v.1.15,2013-09-14 20:45:00,
2013-09-14 13:50:00,72.4,58.6,29.79,West,259,1.0,4.0,62,0.00,,,0.00,Wunderground v.1.15,2013-09-14 20:50:00,
2013-09-14 13:55:00,72.5,58.3,29.79,WSW,254,1.0,5.0,61,0.00,,,0.00,Wunderground v.1.15,2013-09-14 20:55:00,
2013-09-14 14:00:00,72.5,58.3,29.79,West,261,1.0,5.0,61,0.00,,,0.00,Wunderground v.1.15,2013-09-14 21:00:00,
2013-09-14 14:10:00,72.2,58.0,29.79,West,273,1.0,1.0,61,0.00,,,0.00,Wunderground v.1.15,2013-09-14 21:10:00,
2013-09-14 14:15:00,72.6,58.4,29.79,South,186,1.0,5.0,61,0.00,,,0.00,Wunderground v.1.15,2013-09-14 21:15:00,
2013-09-14 14:20:00,73.4,59.1,29.78,WSW,242,1.0,1.0,61,0.00,,,0.00,Wunderground v.1.15,2013-09-14 21:20:00,
2013-09-14 14:25:00,74.1,58.4,29.78,WNW,297,1.0,4.0,58,0.00,,,0.00,Wunderground v.1.15,2013-09-14 21:25:00,
2013-09-14 14:35:00,73.6,58.4,29.78,WSW,249,1.0,4.0,59,0.00,,,0.00,Wunderground v.1.15,2013-09-14 21:35:00,
2013-09-14 14:40:00,73.7,58.9,29.78,West,268,1.0,3.0,60,0.00,,,0.00,Wunderground v.1.15,2013-09-14 21:40:00,
2013-09-14 14:45:00,74.2,58.9,29.78,SSW,198,1.0,4.0,59,0.00,,,0.00,Wunderground v.1.15,2013-09-14 21:45:00,
2013-09-14 14:50:00,73.8,58.1,29.78,South,187,2.0,2.0,58,0.00,,,0.00,Wunderground v.1.15,2013-09-14 21:50:00,
2013-09-14 15:00:00,73.3,58.6,29.78,West,259,2.0,2.0,60,0.00,,,0.00,Wunderground v.1.15,2013-09-14 22:00:00,
2013-09-14 15:05:00,73.3,58.6,29.78,WSW,258,2.0,5.0,60,0.00,,,0.00,Wunderground v.1.15,2013-09-14 22:05:00,
2013-09-14 15:10:00,73.4,58.7,29.78,WNW,291,1.0,1.0,60,0.00,,,0.00,Wunderground v.1.15,2013-09-14 22:10:00,
2013-09-14 15:20:00,74.0,58.8,29.77,WNW,284,1.0,5.0,59,0.00,,,0.00,Wunderground v.1.15,2013-09-14 22:20:00,
2013-09-14 15:25:00,73.7,58.9,29.77,WNW,285,2.0,6.0,60,0.00,,,0.00,Wunderground v.1.15,2013-09-14 22:25:00,
2013-09-14 15:30:00,73.4,58.2,29.77,WSW,244,2.0,8.0,59,0.00,,,0.00,Wunderground v.1.15,2013-09-14 22:30:00,
2013-09-14 15:35:00,72.9,58.7,29.77,WNW,293,2.0,8.0,61,0.00,,,0.00,Wunderground v.1.15,2013-09-14 22:35:00,
2013-09-14 15:40:00,73.1,58.4,29.77,West,279,1.0,5.0,60,0.00,,,0.00,Wunderground v.1.15,2013-09-14 22:40:00,
2013-09-14 15:50:00,73.5,58.8,29.77,West,268,1.0,1.0,60,0.00,,,0.00,Wunderground v.1.15,2013-09-14 22:50:00,
2013-09-14 15:55:00,73.8,58.6,29.77,ENE,61,1.0,5.0,59,0.00,,,0.00,Wunderground v.1.15,2013-09-14 22:55:00,
2013-09-14 16:00:00,74.0,58.8,29.76,West,277,1.0,1.0,59,0.00,,,0.00,Wunderground v.1.15,2013-09-14 23:00:00,
2013-09-14 16:05:00,73.8,58.1,29.76,WSW,248,1.0,5.0,58,0.00,,,0.00,Wunderground v.1.15,2013-09-14 23:05:00,
2013-09-14 16:15:00,73.3,58.6,29.76,West,279,1.0,7.0,60,0.00,,,0.00,Wunderground v.1.15,2013-09-14 23:15:00,
2013-09-14 16:20:00,73.5,58.3,29.76,WNW,292,1.0,5.0,59,0.00,,,0.00,Wunderground v.1.15,2013-09-14 23:20:00,
2013-09-14 16:25:00,73.5,58.3,29.75,SE,142,1.0,5.0,59,0.00,,,0.00,Wunderground v.1.15,2013-09-14 23:25:00,
2013-09-14 16:30:00,73.3,58.1,29.75,SSE,153,1.0,4.0,59,0.00,,,0.00,Wunderground v.1.15,2013-09-14 23:30:00,
2013-09-14 16:40:00,73.5,58.3,29.75,WNW,290,1.0,4.0,59,0.00,,,0.00,Wunderground v.1.15,2013-09-14 23:40:00,
2013-09-14 16:45:00,73.3,58.1,29.75,SSE,160,1.0,6.0,59,0.00,,,0.00,Wunderground v.1.15,2013-09-14 23:45:00,
2013-09-14 16:50:00,73.4,58.2,29.75,West,265,1.0,4.0,59,0.00,,,0.00,Wunderground v.1.15,2013-09-14 23:50:00,
2013-09-14 16:55:00,73.7,58.5,29.75,West,260,1.0,4.0,59,0.00,,,0.00,Wunderground v.1.15,2013-09-14 23:55:00,
2013-09-14 17:05:00,73.4,58.2,29.75,West,269,1.0,4.0,59,0.00,,,0.00,Wunderground v.1.15,2013-09-15 00:05:00,
2013-09-14 17:10:00,73.0,58.3,29.75,SE,129,1.0,5.0,60,0.00,,,0.00,Wunderground v.1.15,2013-09-15 00:10:00,
2013-09-14 17:15:00,72.4,57.7,29.75,SE,128,0.0,5.0,60,0.00,,,0.00,Wunderground v.1.15,2013-09-15 00:15:00,
2013-09-14 17:20:00,72.1,57.4,29.75,WSW,247,0.0,3.0,60,0.00,,,0.00,Wunderground v.1.15,2013-09-15 00:20:00,
2013-09-14 17:25:00,72.5,57.4,29.75,NW,325,0.0,3.0,59,0.00,,,0.00,Wunderground v.1.15,2013-09-15 00:25:00,
2013-09-14 17:35:00,72.0,57.4,29.75,WNW,302,1.0,7.0,60,0.00,,,0.00,Wunderground v.1.15,2013-09-15 00:35:00,
2013-09-14 17:40:00,71.5,57.3,29.75,WNW,283,1.0,1.0,61,0.00,,,0.00,Wunderground v.1.15,2013-09-15 00:40:00,
2013-09-14 17:45:00,71.2,57.1,29.75,West,271,1.0,4.0,61,0.00,,,0.00,Wunderground v.1.15,2013-09-15 00:45:00,
2013-09-14 17:50:00,70.6,56.9,29.75,WSW,258,0.0,1.0,62,0.00,,,0.00,Wunderground v.1.15,2013-09-15 00:50:00,
2013-09-14 18:00:00,69.4,56.7,29.75,SW,222,0.0,0.0,64,0.00,,,0.00,Wunderground v.1.15,2013-09-15 01:00:00,
2013-09-14 18:05:00,68.8,56.6,29.75,West,268,0.0,2.0,65,0.00,,,0.00,Wunderground v.1.15,2013-09-15 01:05:00,
2013-09-14 18:10:00,68.2,56.4,29.75,WNW,287,0.0,1.0,66,0.00,,,0.00,Wunderground v.1.15,2013-09-15 01:10:00,
2013-09-14 18:20:00,67.0,56.1,29.75,ENE,77,0.0,5.0,68,0.00,,,0.00,Wunderground v.1.15,2013-09-15 01:20:00,
2013-09-14 18:25:00,66.6,56.1,29.75,West,260,0.0,5.0,69,0.00,,,0.00,Wunderground v.1.15,2013-09-15 01:25:00,
2013-09-14 18:30:00,66.1,55.6,29.75,SSE,167,0.0,2.0,69,0.00,,,0.00,Wunderground v.1.15,2013-09-15 01:30:00,
2013-09-14 18:35:00,65.5,55.8,29.75,NE,47,0.0,2.0,71,0.00,,,0.00,Wunderground v.1.15,2013-09-15 01:35:00,
2013-09-14 18:40:00,64.8,55.6,29.75,ESE,110,0.0,4.0,72,0.00,,,0.00,Wunderground v.1.15,2013-09-15 01:40:00,
2013-09-14 18:50:00,63.7,55.6,29.76,WNW,288,0.0,6.0,75,0.00,,,0.00,Wunderground v.1.15,2013-09-15 01:50:00,
2013-09-14 18:55:00,63.3,55.6,29.75,West,278,0.0,6.0,76,0.00,,,0.00,Wunderground v.1.15,2013-09-15 01:55:00,
2013-09-14 19:00:00,62.9,55.2,29.75,East,83,1.0,1.0,76,0.00,,,0.00,Wunderground v.1.15,2013-09-15 02:00:00,
2013-09-14 19:10:00,62.3,55.4,29.75,WSW,257,0.0,6.0,78,0.00,,,0.00,Wunderground v.1.15,2013-09-15 02:10:00,
2013-09-14 19:15:00,62.0,55.1,29.75,West,279,0.0,6.0,78,0.00,,,0.00,Wunderground v.1.15,2013-09-15 02:15:00,
2013-09-14 19:20:00,61.6,55.0,29.75,West,261,0.0,4.0,79,0.00,,,0.00,Wunderground v.1.15,2013-09-15 02:20:00,
2013-09-14 19:30:00,61.1,54.5,29.75,SSE,163,0.0,5.0,79,0.00,,,0.00,Wunderground v.1.15,2013-09-15 02:30:00,
2013-09-14 19:35:00,60.9,54.3,29.76,ENE,59,0.0,5.0,79,0.00,,,0.00,Wunderground v.1.15,2013-09-15 02:35:00,
2013-09-14 19:40:00,60.6,54.4,29.75,NNE,27,0.0,3.0,80,0.00,,,0.00,Wunderground v.1.15,2013-09-15 02:40:00,
2013-09-14 19:50:00,60.1,53.9,29.76,WSW,249,0.0,3.0,80,0.00,,,0.00,Wunderground v.1.15,2013-09-15 02:50:00,
2013-09-14 19:55:00,59.8,54.0,29.76,WNW,293,0.0,4.0,81,0.00,,,0.00,Wunderground v.1.15,2013-09-15 02:55:00,
2013-09-14 20:05:00,59.4,53.6,29.76,NNW,333,1.0,4.0,81,0.00,,,0.00,Wunderground v.1.15,2013-09-15 03:05:00,
2013-09-14 20:10:00,59.4,53.6,29.76,NNW,333,1.0,1.0,81,0.00,,,0.00,Wunderground v.1.15,2013-09-15 03:10:00,
2013-09-14 20:15:00,59.2,53.4,29.76,NNW,333,0.0,1.0,81,0.00,,,0.00,Wunderground v.1.15,2013-09-15 03:15:00,
2013-09-14 20:25:00,58.9,53.4,29.77,NE,52,0.0,3.0,82,0.00,,,0.00,Wunderground v.1.15,2013-09-15 03:25:00,
2013-09-14 20:30:00,58.9,53.1,29.77,WNW,301,0.0,4.0,81,0.00,,,0.00,Wunderground v.1.15,2013-09-15 03:30:00,
2013-09-14 20:40:00,58.6,53.1,29.77,SW,232,0.0,1.0,82,0.00,,,0.00,Wunderground v.1.15,2013-09-15 03:40:00,
2013-09-14 20:45:00,58.4,52.9,29.77,ESE,111,0.0,2.0,82,0.00,,,0.00,Wunderground v.1.15,2013-09-15 03:45:00,
2013-09-14 20:55:00,57.9,52.8,29.77,ESE,115,0.0,2.0,83,0.00,,,0.00,Wunderground v.1.15,2013-09-15 03:55:00,
2013-09-14 21:00:00,57.7,52.9,29.77,ESE,115,0.0,1.0,84,0.00,,,0.00,Wunderground v.1.15,2013-09-15 04:00:00,
2013-09-14 21:05:00,57.5,53.0,29.77,ESE,115,0.0,1.0,85,0.00,,,0.00,Wunderground v.1.15,2013-09-15 04:05:00,
2013-09-14 21:10:00,57.3,53.1,29.77,SE,134,0.0,2.0,86,0.00,,,0.00,Wunderground v.1.15,2013-09-15 04:10:00,
2013-09-14 21:15:00,57.0,52.9,29.77,SE,134,0.0,2.0,86,0.00,,,0.00,Wunderground v.1.15,2013-09-15 04:15:00,
2013-09-14 21:20:00,56.8,53.0,29.78,SE,134,0.0,0.0,87,0.00,,,0.00,Wunderground v.1.15,2013-09-15 04:20:00,
2013-09-14 21:25:00,56.7,52.9,29.78,NE,49,0.0,1.0,87,0.00,,,0.00,Wunderground v.1.15,2013-09-15 04:25:00,
2013-09-14 21:30:00,56.5,52.7,29.78,NE,49,0.0,2.0,87,0.00,,,0.00,Wunderground v.1.15,2013-09-15 04:30:00,
2013-09-14 21:35:00,56.3,52.8,29.78,ESE,109,0.0,2.0,88,0.00,,,0.00,Wunderground v.1.15,2013-09-15 04:35:00,
2013-09-14 21:45:00,56.1,52.6,29.78,ESE,109,0.0,1.0,88,0.00,,,0.00,Wunderground v.1.15,2013-09-15 04:45:00,
2013-09-14 21:50:00,56.0,52.8,29.78,East,94,0.0,0.0,89,0.00,,,0.00,Wunderground v.1.15,2013-09-15 04:50:00,
2013-09-14 21:55:00,56.0,52.8,29.78,SSE,153,0.0,1.0,89,0.00,,,0.00,Wunderground v.1.15,2013-09-15 04:55:00,
2013-09-14 22:05:00,55.9,53.0,29.78,ESE,119,0.0,2.0,90,0.00,,,0.00,Wunderground v.1.15,2013-09-15 05:05:00,
2013-09-14 22:10:00,55.9,53.0,29.78,West,273,0.0,3.0,90,0.00,,,0.00,Wunderground v.1.15,2013-09-15 05:10:00,
2013-09-14 22:15:00,55.9,53.0,29.78,WNW,294,0.0,3.0,90,0.00,,,0.00,Wunderground v.1.15,2013-09-15 05:15:00,
2013-09-14 22:20:00,55.8,52.9,29.78,WNW,294,0.0,1.0,90,0.00,,,0.00,Wunderground v.1.15,2013-09-15 05:20:00,
2013-09-14 22:25:00,55.6,52.4,29.78,WNW,294,0.0,1.0,89,0.00,,,0.00,Wunderground v.1.15,2013-09-15 05:25:00,
2013-09-14 22:35:00,55.4,52.5,29.78,WNW,294,0.0,1.0,90,0.00,,,0.00,Wunderground v.1.15,2013-09-15 05:35:00,
2013-09-14 22:40:00,55.3,52.4,29.78,NW,320,0.0,1.0,90,0.00,,,0.00,Wunderground v.1.15,2013-09-15 05:40:00,
2013-09-14 22:45:00,55.3,52.7,29.78,NE,49,0.0,2.0,91,0.00,,,0.00,Wunderground v.1.15,2013-09-15 05:45:00,
2013-09-14 22:55:00,55.1,52.5,29.79,NE,49,0.0,1.0,91,0.00,,,0.00,Wunderground v.1.15,2013-09-15 05:55:00,
2013-09-14 23:00:00,55.0,52.4,29.79,NE,49,0.0,1.0,91,0.00,,,0.00,Wunderground v.1.15,2013-09-15 06:00:00,
2013-09-14 23:05:00,54.9,52.3,29.79,NE,49,0.0,1.0,91,0.00,,,0.00,Wunderground v.1.15,2013-09-15 06:05:00,
2013-09-14 23:15:00,54.6,52.3,29.79,NNE,15,0.0,2.0,92,0.00,,,0.00,Wunderground v.1.15,2013-09-15 06:15:00,
2013-09-14 23:20:00,54.6,52.3,29.79,NNE,20,0.0,1.0,92,0.00,,,0.00,Wunderground v.1.15,2013-09-15 06:20:00,
2013-09-14 23:25:00,54.6,52.3,29.79,NNE,20,0.0,2.0,92,0.00,,,0.00,Wunderground v.1.15,2013-09-15 06:25:00,
2013-09-14 23:35:00,54.4,52.1,29.79,NNE,20,0.0,0.0,92,0.00,,,0.00,Wunderground v.1.15,2013-09-15 06:35:00,
2013-09-14 23:40:00,54.4,52.4,29.80,NNE,15,0.0,1.0,93,0.00,,,0.00,Wunderground v.1.15,2013-09-15 06:40:00,
2013-09-14 23:45:00,54.4,52.1,29.79,NNE,15,0.0,1.0,92,0.00,,,0.00,Wunderground v.1.15,2013-09-15 06:45:00,
2013-09-14 23:50:00,54.3,52.0,29.79,NNE,15,0.0,0.0,92,0.00,,,0.00,Wunderground v.1.15,2013-09-15 06:50:00,
2013-09-14 23:55:00,54.3,52.0,29.79,NNE,15,0.0,1.0,92,0.00,,,0.00,Wunderground v.1.15,2013-09-15 06:55:00,